Location: Biltmore Gardens
(41.6070°N, 83.4666°W)
Time: 22:01:53
(UTC+00:00)

N. Korean satellite - Pass Details

Date: 13 March 2021
Orbit: 453 x 499 km, 97.2° (Epoch: 12 April)

Event Time Altitude Azimuth Distance (km) Brightness Sun altitude
Rises 10:20:35 0° 24° (NNE) 2,563 10.8 -17.2°
Reaches altitude 10° 10:22:53 10° 37° (NE) 1,685 10.0 -16.8°
Maximum altitude 10:26:01 27° 96° (E) 980 8.9 -16.2°
Drops below altitude 10° 10:29:09 10° 156° (SSE) 1,689 9.5 -15.6°
Sets 10:31:27 0° 168° (SSE) 2,571 10.3 -15.2°
